| time (UTC) | temp F | wind direction | speed MPH | gust MPH | rain 1hr in | rain 24hr in | rain mn in | humidity % | barometer mb |
| 20260903042621 | 69 | 269 | 0.0 | 0.0 | 0.00 | 0.00 | 0.00 | 97 | 1022.3 |
| 20260903042116 | 69 | 315 | 0.0 | 0.0 | 0.00 | 0.00 | 0.00 | 97 | 1022.3 |
| 20260903041613 | 69 | 315 | 0.0 | 0.0 | 0.00 | 0.00 | 0.00 | 97 | 1022.6 |
| 20260903041108 | 69 | 309 | 0.0 | 0.0 | 0.00 | 0.00 | 0.00 | 97 | 1022.7 |
| 20260903040607 | 69 | 309 | 0.0 | 0.0 | 0.00 | 0.00 | 0.00 | 97 | 1022.3 |
| 20260903040104 | 69 | 309 | 0.0 | 1.0 | 0.00 | 0.00 | 0.00 | 97 | 1022.5 |
| 20260903035558 | 69 | 304 | 0.0 | 0.0 | 0.00 | 0.00 | 0.00 | 97 | 1022.5 |
| 20260903035054 | 70 | 322 | 0.0 | 0.0 | 0.00 | 0.00 | 0.00 | 97 | 1022.1 |
| 20260903034549 | 70 | 269 | 0.0 | 0.0 | 0.00 | 0.00 | 0.00 | 97 | 1022.6 |
| 20260903034044 | 70 | 244 | 1.0 | 1.0 | 0.00 | 0.00 | 0.00 | 97 | 1022.6 |
| 20260903033539 | 70 | 60 | 0.0 | 0.0 | 0.00 | 0.00 | 0.00 | 97 | 1022.7 |
| 20260903033034 | 69 | 343 | 0.0 | 0.0 | 0.00 | 0.00 | 0.00 | 97 | 1022.7 |
| 20260903032529 | 70 | 309 | 0.0 | 0.0 | 0.00 | 0.00 | 0.00 | 97 | 1022.5 |
| 20260903032025 | 70 | 315 | 0.0 | 1.0 | 0.00 | 0.00 | 0.00 | 97 | 1022.6 |
| 20260903031524 | 70 | 322 | 0.0 | 0.0 | 0.00 | 0.00 | 0.00 | 97 | 1022.6 |
| 20260903031020 | 70 | 269 | 0.0 | 0.0 | 0.00 | 0.00 | 0.00 | 97 | 1022.9 |
| 20260903030515 | 71 | 89 | 0.0 | 0.0 | 0.00 | 0.00 | 0.00 | 97 | 1022.6 |
| 20260903030011 | 71 | 304 | 0.0 | 0.0 | 0.00 | 0.00 | 0.00 | 96 | 1022.8 |
| 20260903025507 | 71 | 329 | 0.0 | 2.0 | 0.00 | 0.00 | 0.00 | 96 | 1022.7 |
| 20260903025002 | 71 | 333 | 2.0 | 3.0 | 0.00 | 0.00 | 0.00 | 96 | 1022.6 |
| 20260903024501 | 71 | 242 | 0.0 | 0.0 | 0.00 | 0.00 | 0.00 | 96 | 1022.3 |
| 20260903023955 | 71 | 242 | 0.0 | 1.0 | 0.00 | 0.00 | 0.00 | 96 | 1022.6 |
| 20260903023452 | 71 | 62 | 0.0 | 0.0 | 0.00 | 0.00 | 0.00 | 96 | 1022.7 |
| 20260903022947 | 71 | 309 | 0.0 | 0.0 | 0.00 | 0.00 | 0.00 | 96 | 1022.6 |
| 20260903022446 | 71 | 322 | 0.0 | 0.0 | 0.00 | 0.00 | 0.00 | 96 | 1022.7 |
| 20260903021944 | 71 | 322 | 0.0 | 0.0 | 0.00 | 0.00 | 0.00 | 96 | 1022.5 |
| 20260903021440 | 71 | 322 | 0.0 | 0.0 | 0.00 | 0.00 | 0.00 | 96 | 1022.8 |
| 20260903020935 | 72 | 342 | 0.0 | 2.0 | 0.00 | 0.00 | 0.00 | 96 | 1022.7 |
| 20260903020430 | 72 | 242 | 0.0 | 0.0 | 0.00 | 0.00 | 0.00 | 96 | 1022.6 |
| 20260903015925 | 72 | 229 | 1.0 | 1.0 | 0.00 | 0.00 | 0.00 | 96 | 1022.7 |
| 20260903015421 | 72 | 44 | 0.0 | 0.0 | 0.00 | 0.00 | 0.00 | 95 | 1022.8 |
| 20260903014915 | 72 | 44 | 0.0 | 0.0 | 0.00 | 0.00 | 0.00 | 95 | 1023.0 |
| 20260903014409 | 72 | 44 | 0.0 | 0.0 | 0.00 | 0.00 | 0.00 | 95 | 1022.8 |
| 20260903013905 | 73 | 325 | 1.0 | 2.0 | 0.00 | 0.00 | 0.00 | 95 | 1022.6 |
| 20260903013404 | 73 | 309 | 0.0 | 0.0 | 0.00 | 0.00 | 0.00 | 94 | 1022.6 |
| 20260903012903 | 73 | 209 | 0.0 | 1.0 | 0.00 | 0.00 | 0.00 | 94 | 1022.6 |
| 20260903012403 | 73 | 297 | 0.0 | 0.0 | 0.00 | 0.00 | 0.00 | 94 | 1022.9 |
| 20260903011901 | 73 | 321 | 0.0 | 0.0 | 0.00 | 0.00 | 0.00 | 93 | 1022.7 |
| 20260903011356 | 73 | 242 | 0.0 | 0.0 | 0.00 | 0.00 | 0.00 | 93 | 1022.7 |
| 20260903010852 | 73 | 242 | 0.0 | 1.0 | 0.00 | 0.00 | 0.00 | 93 | 1022.7 |
| 20260903010347 | 74 | 25 | 0.0 | 0.0 | 0.00 | 0.00 | 0.00 | 93 | 1022.3 |
| 20260903005845 | 74 | 32 | 0.0 | 0.0 | 0.00 | 0.00 | 0.00 | 93 | 1022.6 |
| 20260903005340 | 74 | 76 | 0.0 | 0.0 | 0.00 | 0.00 | 0.00 | 93 | 1022.8 |
| 20260903004837 | 74 | 230 | 0.0 | 0.0 | 0.00 | 0.00 | 0.00 | 93 | 1022.0 |
| 20260903004332 | 74 | 245 | 0.0 | 0.0 | 0.00 | 0.00 | 0.00 | 93 | 1022.2 |
| 20260903003827 | 75 | 217 | 0.0 | 0.0 | 0.00 | 0.00 | 0.00 | 92 | 1022.5 |
| 20260903003322 | 75 | 212 | 0.0 | 0.0 | 0.00 | 0.00 | 0.00 | 92 | 1022.2 |
| 20260903002821 | 75 | 212 | 0.0 | 0.0 | 0.00 | 0.00 | 0.00 | 91 | 1022.3 |
| 20260903002322 | 75 | 322 | 0.0 | 0.0 | 0.00 | 0.00 | 0.00 | 89 | 1022.2 |
| 20260903001816 | 75 | 322 | 0.0 | 0.0 | 0.00 | 0.00 | 0.00 | 89 | 1022.2 |
| 20260903001312 | 76 | 347 | 1.0 | 2.0 | 0.00 | 0.00 | 0.00 | 89 | 1022.1 |
| 20260903000812 | 76 | 322 | 0.0 | 0.0 | 0.00 | 0.00 | 0.00 | 89 | 1021.9 |
| 20260903000307 | 77 | 333 | 0.0 | 0.0 | 0.00 | 0.00 | 0.00 | 87 | 1022.0 |
| 20260902235804 | 78 | 333 | 0.0 | 0.0 | 0.00 | 0.00 | 0.00 | 85 | 1022.0 |
| 20260902235300 | 78 | 37 | 0.0 | 0.0 | 0.00 | 0.00 | 0.00 | 84 | 1021.9 |
| 20260902234754 | 79 | 337 | 1.0 | 1.0 | 0.00 | 0.00 | 0.00 | 83 | 1021.8 |
| 20260902234253 | 80 | 309 | 0.0 | 0.0 | 0.00 | 0.00 | 0.00 | 83 | 1021.7 |
| 20260902233747 | 80 | 229 | 0.0 | 1.0 | 0.00 | 0.00 | 0.00 | 81 | 1021.8 |
| 20260902233242 | 80 | 236 | 0.0 | 2.0 | 0.00 | 0.00 | 0.00 | 81 | 1021.7 |
| 20260902232740 | 80 | 62 | 0.0 | 1.0 | 0.00 | 0.00 | 0.00 | 77 | 1021.9 |
| 20260902232235 | 81 | 312 | 2.0 | 2.0 | 0.00 | 0.00 | 0.00 | 78 | 1021.9 |
| 20260902231734 | 82 | 258 | 1.0 | 1.0 | 0.00 | 0.00 | 0.00 | 76 | 1021.9 |
| 20260902231230 | 83 | 334 | 3.0 | 3.0 | 0.00 | 0.00 | 0.00 | 74 | 1022.1 |
| 20260902230724 | 83 | 277 | 1.0 | 1.0 | 0.00 | 0.00 | 0.00 | 73 | 1022.1 |
| 20260902230223 | 84 | 333 | 0.0 | 2.0 | 0.00 | 0.00 | 0.00 | 71 | 1022.0 |
| 20260902225719 | 85 | 304 | 0.0 | 1.0 | 0.00 | 0.00 | 0.00 | 67 | 1022.0 |
| 20260902225219 | 86 | 335 | 1.0 | 2.0 | 0.00 | 0.00 | 0.00 | 68 | 1021.8 |
| 20260902224717 | 87 | 309 | 0.0 | 1.0 | 0.00 | 0.00 | 0.00 | 62 | 1021.8 |
| 20260902224213 | 87 | 258 | 1.0 | 4.0 | 0.00 | 0.00 | 0.00 | 57 | 1021.6 |
| 20260902223708 | 89 | 278 | 3.0 | 3.0 | 0.00 | 0.00 | 0.00 | 54 | 1021.7 |
| 20260902223208 | 90 | 245 | 2.0 | 3.0 | 0.00 | 0.00 | 0.00 | 54 | 1021.7 |
| 20260902222707 | 89 | 291 | 0.0 | 3.0 | 0.00 | 0.00 | 0.00 | 53 | 1021.7 |
| 20260902222201 | 89 | 237 | 2.0 | 4.0 | 0.00 | 0.00 | 0.00 | 53 | 1021.8 |
| 20260902221655 | 89 | 251 | 2.0 | 3.0 | 0.00 | 0.00 | 0.00 | 52 | 1021.7 |
| 20260902221155 | 90 | 248 | 2.0 | 4.0 | 0.00 | 0.00 | 0.00 | 52 | 1021.8 |
| 20260902220650 | 89 | 272 | 1.0 | 3.0 | 0.00 | 0.00 | 0.00 | 52 | 1021.8 |
| 20260902220145 | 89 | 276 | 4.0 | 6.0 | 0.00 | 0.00 | 0.00 | 51 | 1021.8 |
| 20260902215641 | 90 | 245 | 3.0 | 4.0 | 0.00 | 0.00 | 0.00 | 51 | 1021.9 |
| 20260902215136 | 91 | 261 | 1.0 | 3.0 | 0.00 | 0.00 | 0.00 | 49 | 1021.8 |
| 20260902214631 | 90 | 260 | 3.0 | 4.0 | 0.00 | 0.00 | 0.00 | 52 | 1021.9 |
| 20260902214130 | 90 | 262 | 3.0 | 4.0 | 0.00 | 0.00 | 0.00 | 52 | 1021.8 |
| 20260902213626 | 90 | 236 | 3.0 | 4.0 | 0.00 | 0.00 | 0.00 | 51 | 1021.8 |
| 20260902213125 | 90 | 250 | 1.0 | 4.0 | 0.00 | 0.00 | 0.00 | 51 | 1021.7 |
| 20260902212621 | 91 | 221 | 4.0 | 4.0 | 0.00 | 0.00 | 0.00 | 50 | 1022.0 |
| 20260902212117 | 91 | 227 | 3.0 | 4.0 | 0.00 | 0.00 | 0.00 | 48 | 1022.0 |
| 20260902211613 | 89 | 283 | 1.0 | 1.0 | 0.00 | 0.00 | 0.00 | 52 | 1021.9 |
| 20260902211108 | 89 | 233 | 3.0 | 7.0 | 0.00 | 0.00 | 0.00 | 50 | 1021.8 |
| 20260902210607 | 91 | 244 | 6.0 | 7.0 | 0.00 | 0.00 | 0.00 | 49 | 1021.8 |
| 20260902205601 | 89 | 233 | 2.0 | 3.0 | 0.00 | 0.00 | 0.00 | 52 | 1022.1 |
| 20260902205056 | 89 | 228 | 4.0 | 5.0 | 0.00 | 0.00 | 0.00 | 52 | 1022.1 |
| 20260902204551 | 89 | 250 | 5.0 | 8.0 | 0.00 | 0.00 | 0.00 | 53 | 1022.2 |
| 20260902204046 | 90 | 246 | 5.0 | 7.0 | 0.00 | 0.00 | 0.00 | 53 | 1022.0 |
| 20260902203541 | 90 | 239 | 4.0 | 7.0 | 0.00 | 0.00 | 0.00 | 52 | 1022.2 |
| 20260902203040 | 89 | 237 | 2.0 | 3.0 | 0.00 | 0.00 | 0.00 | 53 | 1022.2 |
| 20260902202536 | 89 | 255 | 2.0 | 6.0 | 0.00 | 0.00 | 0.00 | 52 | 1022.2 |
| 20260902202032 | 89 | 235 | 3.0 | 4.0 | 0.00 | 0.00 | 0.00 | 53 | 1022.1 |
| 20260902201528 | 91 | 258 | 5.0 | 6.0 | 0.00 | 0.00 | 0.00 | 50 | 1022.2 |
| 20260902201027 | 90 | 247 | 2.0 | 5.0 | 0.00 | 0.00 | 0.00 | 55 | 1022.2 |
| 20260902200522 | 89 | 326 | 2.0 | 3.0 | 0.00 | 0.00 | 0.00 | 54 | 1022.3 |
| 20260902200019 | 89 | 239 | 3.0 | 5.0 | 0.00 | 0.00 | 0.00 | 54 | 1022.3 |
| 20260902195514 | 89 | 222 | 5.0 | 7.0 | 0.00 | 0.00 | 0.00 | 52 | 1022.1 |
| 20260902195013 | 88 | 279 | 2.0 | 4.0 | 0.00 | 0.00 | 0.00 | 53 | 1022.1 |
| 20260902194513 | 89 | 218 | 5.0 | 5.0 | 0.00 | 0.00 | 0.00 | 52 | 1022.2 |
| 20260902194008 | 89 | 242 | 6.0 | 7.0 | 0.00 | 0.00 | 0.00 | 52 | 1022.2 |
| 20260902193504 | 90 | 239 | 8.0 | 8.0 | 0.00 | 0.00 | 0.00 | 51 | 1022.5 |
| 20260902193004 | 90 | 231 | 3.0 | 7.0 | 0.00 | 0.00 | 0.00 | 52 | 1022.6 |
| 20260902192502 | 89 | 316 | 2.0 | 3.0 | 0.00 | 0.00 | 0.00 | 54 | 1022.6 |
| 20260902192001 | 89 | 286 | 5.0 | 12.0 | 0.00 | 0.00 | 0.00 | 53 | 1022.8 |
| 20260902191456 | 90 | 229 | 5.0 | 6.0 | 0.00 | 0.00 | 0.00 | 52 | 1022.7 |
| 20260902190951 | 89 | 230 | 5.0 | 9.0 | 0.00 | 0.00 | 0.00 | 53 | 1022.9 |
| 20260902190446 | 89 | 244 | 4.0 | 5.0 | 0.00 | 0.00 | 0.00 | 56 | 1022.5 |
| 20260902185942 | 90 | 246 | 5.0 | 9.0 | 0.00 | 0.00 | 0.00 | 55 | 1022.7 |
| 20260902185438 | 89 | 251 | 1.0 | 3.0 | 0.00 | 0.00 | 0.00 | 54 | 1023.0 |
| 20260902184933 | 90 | 224 | 3.0 | 4.0 | 0.00 | 0.00 | 0.00 | 55 | 1022.8 |
| 20260902184428 | 89 | 341 | 2.0 | 2.0 | 0.00 | 0.00 | 0.00 | 52 | 1022.8 |
| 20260902183924 | 89 | 275 | 2.0 | 4.0 | 0.00 | 0.00 | 0.00 | 56 | 1022.9 |
| 20260902183420 | 89 | 238 | 2.0 | 2.0 | 0.00 | 0.00 | 0.00 | 55 | 1022.8 |
| 20260902182915 | 89 | 216 | 5.0 | 7.0 | 0.00 | 0.00 | 0.00 | 53 | 1022.9 |
| 20260902182412 | 89 | 220 | 5.0 | 7.0 | 0.00 | 0.00 | 0.00 | 54 | 1023.2 |
| 20260902181908 | 89 | 251 | 6.0 | 7.0 | 0.00 | 0.00 | 0.00 | 53 | 1023.2 |
| 20260902181403 | 89 | 255 | 5.0 | 7.0 | 0.00 | 0.00 | 0.00 | 55 | 1023.3 |
| 20260902180857 | 88 | 249 | 4.0 | 7.0 | 0.00 | 0.00 | 0.00 | 56 | 1023.4 |
| 20260902180352 | 88 | 260 | 5.0 | 7.0 | 0.00 | 0.00 | 0.00 | 54 | 1023.5 |
| 20260902175848 | 89 | 250 | 5.0 | 6.0 | 0.00 | 0.00 | 0.00 | 54 | 1023.4 |
| 20260902175343 | 87 | 272 | 1.0 | 2.0 | 0.00 | 0.00 | 0.00 | 58 | 1023.3 |
| 20260902174838 | 86 | 328 | 3.0 | 3.0 | 0.00 | 0.00 | 0.00 | 60 | 1023.5 |
| 20260902174336 | 85 | 271 | 1.0 | 3.0 | 0.00 | 0.00 | 0.00 | 59 | 1023.5 |
| 20260902173831 | 88 | 243 | 4.0 | 6.0 | 0.00 | 0.00 | 0.00 | 59 | 1023.4 |
| 20260902173330 | 89 | 331 | 1.0 | 3.0 | 0.00 | 0.00 | 0.00 | 60 | 1023.5 |
| 20260902172825 | 87 | 355 | 2.0 | 6.0 | 0.00 | 0.00 | 0.00 | 60 | 1023.5 |
| 20260902172324 | 87 | 352 | 3.0 | 5.0 | 0.00 | 0.00 | 0.00 | 60 | 1023.7 |
| 20260902171814 | 86 | 300 | 3.0 | 5.0 | 0.00 | 0.00 | 0.00 | 59 | 1023.7 |
| 20260902171309 | 87 | 172 | 0.0 | 5.0 | 0.00 | 0.00 | 0.00 | 58 | 1023.9 |
| 20260902170806 | 87 | 313 | 6.0 | 6.0 | 0.00 | 0.00 | 0.00 | 59 | 1024.0 |
| 20260902170300 | 86 | 248 | 2.0 | 4.0 | 0.00 | 0.00 | 0.00 | 58 | 1024.2 |
| 20260902165756 | 87 | 288 | 1.0 | 6.0 | 0.00 | 0.00 | 0.00 | 59 | 1024.0 |
| 20260902165250 | 86 | 341 | 3.0 | 3.0 | 0.00 | 0.00 | 0.00 | 58 | 1024.0 |
| 20260902164744 | 86 | 337 | 3.0 | 5.0 | 0.00 | 0.00 | 0.00 | 59 | 1024.0 |
| 20260902164238 | 87 | 333 | 5.0 | 6.0 | 0.00 | 0.00 | 0.00 | 60 | 1024.0 |
| 20260902163733 | 86 | 337 | 5.0 | 5.0 | 0.00 | 0.00 | 0.00 | 61 | 1024.2 |
| 20260902163228 | 85 | 37 | 0.0 | 6.0 | 0.00 | 0.00 | 0.00 | 59 | 1023.9 |
| 20260902162726 | 85 | 309 | 2.0 | 5.0 | 0.00 | 0.00 | 0.00 | 59 | 1024.2 |
| 20260902162221 | 86 | 13 | 4.0 | 6.0 | 0.00 | 0.00 | 0.00 | 60 | 1024.0 |
| 20260902161716 | 86 | 316 | 5.0 | 7.0 | 0.00 | 0.00 | 0.00 | 60 | 1024.2 |
| 20260902161212 | 86 | 349 | 3.0 | 5.0 | 0.00 | 0.00 | 0.00 | 64 | 1024.0 |
| 20260902160708 | 86 | 350 | 3.0 | 9.0 | 0.00 | 0.00 | 0.00 | 62 | 1024.4 |
| 20260902160203 | 85 | 355 | 3.0 | 4.0 | 0.00 | 0.00 | 0.00 | 63 | 1024.2 |
| 20260902155701 | 86 | 192 | 3.0 | 7.0 | 0.00 | 0.00 | 0.00 | 64 | 1024.2 |
| 20260902155159 | 86 | 218 | 2.0 | 6.0 | 0.00 | 0.00 | 0.00 | 62 | 1024.1 |
| 20260902154655 | 85 | 335 | 1.0 | 4.0 | 0.00 | 0.00 | 0.00 | 63 | 1024.3 |
| 20260902154154 | 85 | 240 | 2.0 | 6.0 | 0.00 | 0.00 | 0.00 | 62 | 1024.0 |
| 20260902153649 | 86 | 261 | 5.0 | 6.0 | 0.00 | 0.00 | 0.00 | 61 | 1024.2 |
| 20260902153144 | 85 | 253 | 0.0 | 3.0 | 0.00 | 0.00 | 0.00 | 63 | 1024.4 |
| 20260902152640 | 84 | 235 | 0.0 | 2.0 | 0.00 | 0.00 | 0.00 | 65 | 1024.2 |
| 20260902152135 | 83 | 229 | 0.0 | 1.0 | 0.00 | 0.00 | 0.00 | 69 | 1024.2 |
| 20260902151630 | 82 | 69 | 0.0 | 1.0 | 0.00 | 0.00 | 0.00 | 69 | 1024.3 |
| 20260902151125 | 82 | 68 | 2.0 | 3.0 | 0.00 | 0.00 | 0.00 | 72 | 1024.4 |
| 20260902150621 | 81 | 235 | 0.0 | 2.0 | 0.00 | 0.00 | 0.00 | 73 | 1024.6 |
| 20260902150115 | 82 | 89 | 0.0 | 2.0 | 0.00 | 0.00 | 0.00 | 75 | 1024.3 |
| 20260902145610 | 82 | 35 | 2.0 | 2.0 | 0.00 | 0.00 | 0.00 | 71 | 1024.7 |
| 20260902145109 | 82 | 260 | 1.0 | 2.0 | 0.00 | 0.00 | 0.00 | 71 | 1024.6 |
| 20260902144607 | 80 | 269 | 0.0 | 2.0 | 0.00 | 0.00 | 0.00 | 73 | 1024.2 |
| 20260902144107 | 79 | 66 | 2.0 | 2.0 | 0.00 | 0.00 | 0.00 | 78 | 1024.2 |
| 20260902143601 | 79 | 46 | 2.0 | 2.0 | 0.00 | 0.00 | 0.00 | 76 | 1024.3 |
| 20260902143057 | 79 | 355 | 1.0 | 2.0 | 0.00 | 0.00 | 0.00 | 76 | 1024.2 |
| 20260902142552 | 79 | 69 | 1.0 | 1.0 | 0.00 | 0.00 | 0.00 | 76 | 1024.4 |
| 20260902142048 | 79 | 278 | 0.0 | 1.0 | 0.00 | 0.00 | 0.00 | 76 | 1024.7 |
| 20260902141542 | 77 | 126 | 0.0 | 1.0 | 0.00 | 0.00 | 0.00 | 81 | 1024.4 |
| 20260902141037 | 76 | 62 | 0.0 | 1.0 | 0.00 | 0.00 | 0.00 | 81 | 1024.7 |
| 20260902140532 | 75 | 73 | 1.0 | 3.0 | 0.00 | 0.00 | 0.00 | 85 | 1024.7 |
| 20260902140027 | 75 | 24 | 1.0 | 3.0 | 0.00 | 0.00 | 0.00 | 84 | 1024.4 |
| 20260902135526 | 74 | 62 | 3.0 | 3.0 | 0.00 | 0.00 | 0.00 | 85 | 1024.8 |
| 20260902135022 | 74 | 59 | 2.0 | 3.0 | 0.00 | 0.00 | 0.00 | 83 | 1024.6 |
| 20260902134518 | 74 | 46 | 2.0 | 3.0 | 0.00 | 0.00 | 0.00 | 87 | 1024.6 |
| 20260902134018 | 73 | 66 | 2.0 | 3.0 | 0.00 | 0.00 | 0.00 | 85 | 1024.8 |
| 20260902133512 | 73 | 35 | 2.0 | 3.0 | 0.00 | 0.00 | 0.00 | 85 | 1024.7 |
| 20260902133012 | 73 | 58 | 1.0 | 2.0 | 0.00 | 0.00 | 0.00 | 87 | 1024.9 |
| 20260902132508 | 72 | 49 | 2.0 | 3.0 | 0.00 | 0.00 | 0.00 | 87 | 1024.7 |
| 20260902132003 | 73 | 57 | 2.0 | 3.0 | 0.00 | 0.00 | 0.00 | 87 | 1024.7 |
| 20260902131459 | 72 | 52 | 2.0 | 3.0 | 0.00 | 0.00 | 0.00 | 88 | 1024.7 |
| 20260902130958 | 72 | 64 | 2.0 | 2.0 | 0.00 | 0.00 | 0.00 | 90 | 1024.3 |
| 20260902130454 | 71 | 68 | 2.0 | 4.0 | 0.00 | 0.00 | 0.00 | 92 | 1024.8 |
| 20260902125949 | 70 | 84 | 0.0 | 2.0 | 0.00 | 0.00 | 0.00 | 96 | 1024.4 |
| 20260902125446 | 70 | 56 | 2.0 | 2.0 | 0.00 | 0.00 | 0.00 | 97 | 1024.7 |
| 20260902124941 | 70 | 107 | 0.0 | 1.0 | 0.00 | 0.00 | 0.00 | 97 | 1024.6 |
| 20260902124437 | 69 | 60 | 0.0 | 1.0 | 0.00 | 0.00 | 0.00 | 97 | 1024.6 |
| 20260902123932 | 68 | 52 | 1.0 | 2.0 | 0.00 | 0.00 | 0.00 | 97 | 1024.6 |
| 20260902123428 | 68 | 60 | 1.0 | 2.0 | 0.00 | 0.00 | 0.00 | 97 | 1024.4 |
| 20260902122926 | 68 | 44 | 1.0 | 2.0 | 0.00 | 0.00 | 0.00 | 97 | 1024.2 |
| 20260902122423 | 68 | 28 | 0.0 | 0.0 | 0.00 | 0.00 | 0.00 | 97 | 1024.3 |
| 20260902121918 | 69 | 339 | 0.0 | 0.0 | 0.00 | 0.00 | 0.00 | 97 | 1024.4 |
| 20260902121413 | 68 | 32 | 0.0 | 0.0 | 0.00 | 0.00 | 0.00 | 97 | 1024.3 |
| 20260902120908 | 68 | 89 | 0.0 | 0.0 | 0.00 | 0.00 | 0.00 | 97 | 1024.3 |
| 20260902120404 | 68 | 46 | 1.0 | 2.0 | 0.00 | 0.00 | 0.00 | 97 | 1024.2 |
| 20260902115903 | 68 | 50 | 0.0 | 1.0 | 0.00 | 0.00 | 0.00 | 97 | 1024.3 |
| 20260902115400 | 68 | 55 | 0.0 | 0.0 | 0.00 | 0.00 | 0.00 | 97 | 1024.2 |
| 20260902114856 | 68 | 322 | 0.0 | 0.0 | 0.00 | 0.00 | 0.00 | 97 | 1023.9 |
| 20260902114351 | 68 | 224 | 0.0 | 0.0 | 0.00 | 0.00 | 0.00 | 97 | 1024.2 |
| 20260902113846 | 68 | 224 | 0.0 | 0.0 | 0.00 | 0.00 | 0.00 | 97 | 1024.0 |
| 20260902113342 | 68 | 273 | 0.0 | 1.0 | 0.00 | 0.00 | 0.00 | 97 | 1023.9 |
| 20260902112841 | 68 | 315 | 0.0 | 0.0 | 0.00 | 0.00 | 0.00 | 97 | 1024.1 |
| 20260902112337 | 68 | 310 | 0.0 | 0.0 | 0.00 | 0.00 | 0.00 | 97 | 1024.3 |
| 20260902111833 | 68 | 0 | 0.0 | 1.0 | 0.00 | 0.00 | 0.00 | 97 | 1024.1 |
| 20260902111329 | 68 | 304 | 0.0 | 0.0 | 0.00 | 0.00 | 0.00 | 97 | 1024.3 |
| 20260902110824 | 68 | 315 | 0.0 | 0.0 | 0.00 | 0.00 | 0.00 | 97 | 1024.1 |
| 20260902110320 | 68 | 37 | 0.0 | 0.0 | 0.00 | 0.00 | 0.00 | 97 | 1024.2 |
| 20260902105820 | 68 | 37 | 0.0 | 0.0 | 0.00 | 0.00 | 0.00 | 97 | 1023.9 |
| 20260902105315 | 68 | 240 | 0.0 | 0.0 | 0.00 | 0.00 | 0.00 | 97 | 1024.2 |
| 20260902104810 | 68 | 222 | 0.0 | 1.0 | 0.00 | 0.00 | 0.00 | 97 | 1024.4 |
| 20260902104307 | 68 | 246 | 0.0 | 1.0 | 0.00 | 0.00 | 0.00 | 97 | 1024.1 |
| 20260902103806 | 68 | 255 | 1.0 | 2.0 | 0.00 | 0.00 | 0.00 | 97 | 1024.2 |
| 20260902103301 | 68 | 322 | 0.0 | 0.0 | 0.00 | 0.00 | 0.00 | 97 | 1024.2 |
| 20260902102756 | 68 | 261 | 0.0 | 0.0 | 0.00 | 0.00 | 0.00 | 97 | 1024.3 |
| 20260902102254 | 68 | 120 | 1.0 | 2.0 | 0.00 | 0.00 | 0.00 | 97 | 1024.3 |
| 20260902101749 | 68 | 224 | 0.0 | 0.0 | 0.00 | 0.00 | 0.00 | 97 | 1024.6 |
| 20260902101244 | 68 | 224 | 0.0 | 0.0 | 0.00 | 0.00 | 0.00 | 97 | 1024.4 |
| 20260902100743 | 68 | 235 | 0.0 | 0.0 | 0.00 | 0.00 | 0.00 | 97 | 1024.4 |
| 20260902100237 | 68 | 222 | 0.0 | 2.0 | 0.00 | 0.00 | 0.00 | 97 | 1024.1 |
| 20260902095732 | 69 | 322 | 0.0 | 0.0 | 0.00 | 0.00 | 0.00 | 97 | 1024.3 |
| 20260902095226 | 69 | 246 | 0.0 | 0.0 | 0.00 | 0.00 | 0.00 | 97 | 1024.6 |
| 20260902094721 | 69 | 246 | 0.0 | 0.0 | 0.00 | 0.00 | 0.00 | 97 | 1024.2 |
| 20260902094218 | 69 | 246 | 0.0 | 0.0 | 0.00 | 0.00 | 0.00 | 97 | 1024.4 |
| 20260902093716 | 69 | 246 | 0.0 | 1.0 | 0.00 | 0.00 | 0.00 | 97 | 1024.1 |
| 20260902093212 | 69 | 309 | 0.0 | 0.0 | 0.00 | 0.00 | 0.00 | 97 | 1024.3 |
| 20260902092712 | 69 | 309 | 0.0 | 0.0 | 0.00 | 0.00 | 0.00 | 97 | 1024.2 |
| 20260902092207 | 69 | 211 | 0.0 | 0.0 | 0.00 | 0.00 | 0.00 | 97 | 1024.4 |
| 20260902091701 | 69 | 224 | 0.0 | 0.0 | 0.00 | 0.00 | 0.00 | 97 | 1024.2 |
| 20260902091158 | 69 | 230 | 0.0 | 0.0 | 0.00 | 0.00 | 0.00 | 97 | 1024.2 |
| 20260902090654 | 69 | 259 | 2.0 | 2.0 | 0.00 | 0.00 | 0.00 | 97 | 1024.3 |
| 20260902090152 | 69 | 322 | 0.0 | 0.0 | 0.00 | 0.00 | 0.00 | 97 | 1024.3 |
| 20260902085647 | 69 | 322 | 0.0 | 0.0 | 0.00 | 0.00 | 0.00 | 97 | 1024.4 |
| 20260902085142 | 69 | 322 | 0.0 | 0.0 | 0.00 | 0.00 | 0.00 | 97 | 1024.2 |
| 20260902084638 | 69 | 266 | 0.0 | 1.0 | 0.00 | 0.00 | 0.00 | 97 | 1024.2 |
| 20260902084133 | 69 | 240 | 0.0 | 0.0 | 0.00 | 0.00 | 0.00 | 97 | 1024.0 |
| 20260902083629 | 69 | 240 | 0.0 | 1.0 | 0.00 | 0.00 | 0.00 | 97 | 1024.0 |
| 20260902083128 | 69 | 217 | 0.0 | 0.0 | 0.00 | 0.00 | 0.00 | 97 | 1024.3 |
| 20260902082624 | 69 | 230 | 0.0 | 0.0 | 0.00 | 0.00 | 0.00 | 97 | 1024.2 |
| 20260902082120 | 69 | 269 | 0.0 | 0.0 | 0.00 | 0.00 | 0.00 | 97 | 1023.9 |
| 20260902081617 | 69 | 309 | 0.0 | 0.0 | 0.00 | 0.00 | 0.00 | 97 | 1024.1 |
| 20260902081116 | 69 | 322 | 0.0 | 0.0 | 0.00 | 0.00 | 0.00 | 97 | 1024.3 |
| 20260902080612 | 69 | 279 | 0.0 | 0.0 | 0.00 | 0.00 | 0.00 | 97 | 1024.2 |
| 20260902080108 | 69 | 315 | 0.0 | 0.0 | 0.00 | 0.00 | 0.00 | 97 | 1023.9 |
| 20260902075607 | 69 | 269 | 0.0 | 0.0 | 0.00 | 0.00 | 0.00 | 97 | 1023.9 |
| 20260902075104 | 69 | 15 | 0.0 | 0.0 | 0.00 | 0.00 | 0.00 | 97 | 1023.9 |
| 20260902074559 | 69 | 309 | 0.0 | 0.0 | 0.00 | 0.00 | 0.00 | 97 | 1023.7 |
| 20260902074054 | 69 | 343 | 0.0 | 1.0 | 0.00 | 0.00 | 0.00 | 97 | 1023.8 |
| 20260902073549 | 69 | 50 | 0.0 | 1.0 | 0.00 | 0.00 | 0.00 | 97 | 1023.7 |
| 20260902073046 | 69 | 353 | 0.0 | 1.0 | 0.00 | 0.00 | 0.00 | 97 | 1023.6 |
| 20260902072541 | 69 | 6 | 0.0 | 1.0 | 0.00 | 0.00 | 0.00 | 97 | 1023.6 |
| 20260902072038 | 69 | 343 | 0.0 | 0.0 | 0.00 | 0.00 | 0.00 | 97 | 1023.7 |
| 20260902071537 | 69 | 340 | 1.0 | 2.0 | 0.00 | 0.00 | 0.00 | 97 | 1023.4 |
| 20260902071033 | 69 | 297 | 0.0 | 1.0 | 0.00 | 0.00 | 0.00 | 97 | 1023.6 |
| 20260902070529 | 70 | 347 | 0.0 | 0.0 | 0.00 | 0.00 | 0.00 | 97 | 1023.5 |
| 20260902070023 | 70 | 13 | 0.0 | 0.0 | 0.00 | 0.00 | 0.00 | 97 | 1023.7 |
| 20260902065517 | 69 | 321 | 0.0 | 0.0 | 0.00 | 0.00 | 0.00 | 97 | 1023.6 |
| 20260902065013 | 69 | 309 | 0.0 | 1.0 | 0.00 | 0.00 | 0.00 | 97 | 1023.4 |
| 20260902064509 | 69 | 252 | 0.0 | 0.0 | 0.00 | 0.00 | 0.00 | 97 | 1023.5 |
| 20260902064004 | 69 | 293 | 0.0 | 0.0 | 0.00 | 0.00 | 0.00 | 97 | 1023.5 |
| 20260902063503 | 69 | 230 | 0.0 | 0.0 | 0.00 | 0.00 | 0.00 | 97 | 1023.8 |
| 20260902062959 | 69 | 230 | 0.0 | 0.0 | 0.00 | 0.00 | 0.00 | 97 | 1023.8 |
| 20260902062457 | 69 | 315 | 0.0 | 0.0 | 0.00 | 0.00 | 0.00 | 97 | 1023.6 |
| 20260902061953 | 69 | 315 | 0.0 | 1.0 | 0.00 | 0.00 | 0.00 | 97 | 1023.7 |
| 20260902061448 | 69 | 310 | 0.0 | 0.0 | 0.00 | 0.00 | 0.00 | 97 | 1023.6 |
| 20260902060944 | 69 | 310 | 0.0 | 0.0 | 0.00 | 0.00 | 0.00 | 97 | 1023.9 |
| 20260902060440 | 69 | 310 | 0.0 | 0.0 | 0.00 | 0.00 | 0.00 | 97 | 1023.6 |
| 20260902055935 | 69 | 309 | 0.0 | 0.0 | 0.00 | 0.00 | 0.00 | 97 | 1023.8 |
| 20260902055431 | 69 | 309 | 0.0 | 0.0 | 0.00 | 0.00 | 0.00 | 97 | 1023.6 |
| 20260902054926 | 69 | 309 | 0.0 | 0.0 | 0.00 | 0.00 | 0.00 | 97 | 1023.8 |
| 20260902054421 | 69 | 322 | 0.0 | 0.0 | 0.00 | 0.00 | 0.00 | 97 | 1023.7 |
| 20260902053917 | 69 | 310 | 0.0 | 0.0 | 0.00 | 0.00 | 0.00 | 97 | 1023.8 |
| 20260902053412 | 69 | 326 | 0.0 | 0.0 | 0.00 | 0.00 | 0.00 | 97 | 1023.7 |
| 20260902052911 | 69 | 326 | 0.0 | 0.0 | 0.00 | 0.00 | 0.00 | 97 | 1023.5 |
| 20260902052406 | 69 | 309 | 0.0 | 0.0 | 0.00 | 0.00 | 0.00 | 97 | 1023.4 |
| 20260902051901 | 69 | 233 | 0.0 | 0.0 | 0.00 | 0.00 | 0.00 | 97 | 1023.6 |
| 20260902051356 | 69 | 230 | 0.0 | 1.0 | 0.00 | 0.00 | 0.00 | 97 | 1023.4 |
| 20260902050855 | 69 | 343 | 0.0 | 0.0 | 0.00 | 0.00 | 0.00 | 97 | 1023.7 |
| 20260902050355 | 69 | 309 | 0.0 | 0.0 | 0.00 | 0.00 | 0.00 | 97 | 1023.4 |
| 20260902045850 | 69 | 309 | 0.0 | 0.0 | 0.00 | 0.00 | 0.00 | 97 | 1023.2 |
| 20260902045346 | 69 | 309 | 1.0 | 1.0 | 0.00 | 0.00 | 0.00 | 97 | 1023.2 |
| 20260902044842 | 69 | 304 | 0.0 | 1.0 | 0.00 | 0.00 | 0.00 | 97 | 1023.3 |
| 20260902044337 | 70 | 326 | 0.0 | 0.0 | 0.00 | 0.00 | 0.00 | 97 | 1023.3 |
| 20260902043837 | 69 | 326 | 0.0 | 0.0 | 0.00 | 0.00 | 0.00 | 97 | 1023.3 |
| 20260902043333 | 69 | 37 | 0.0 | 0.0 | 0.00 | 0.00 | 0.00 | 97 | 1023.2 |
| 20260902042832 | 69 | 279 | 0.0 | 0.0 | 0.00 | 0.00 | 0.00 | 97 | 1023.2 |